Regional Weather Roundup
Issued by NWS

Home | Current Version | Previous Version | Text Only | Print | Product List | Glossary On
Versions: 1 2 3 4 5 6 7 8 9 10 11 12 13 14 15 16 17 18 19 20 21 22 23 24 25 26 27 28 29 30 31 32 33 34 35 36 37 38 39 40 41 42 43 44 45 46 47 48 49 50
000
ASUS43 KMPX 311410
RWRMN
WEATHER ROUNDUP FOR MINNESOTA
NATIONAL WEATHER SERVICE TWIN CITIES/CHANHASSEN MN
900 AM CDT WED AUG 31 2016


NOTE: "FAIR" INDICATES FEW OR NO CLOUDS BELOW 12,000 FEET WITH NO
SIGNIFICANT WEATHER AND/OR OBSTRUCTIONS TO VISIBILITY. N/A MEANS
CURRENT SKY AND/OR WEATHER CONDITIONS ARE NOT AVAILABLE.

MNZ060>063-068>070-311500-
   Twin Cities Metro

CITY           SKY/WX    TMP DP  RH WIND       PRES   REMARKS
TWIN CITIES    MOSUNNY   66  56  70 NW3       30.21S
ST PAUL        MOSUNNY   64  57  78 NW3       30.22R
CRYSTAL        SUNNY     64  53  67 N3        30.21S
BLAINE         MOSUNNY   63  57  82 CALM      30.22S
LAKEVILLE      SUNNY     64  57  77 CALM      30.21S
EDEN PRAIRIE   SUNNY     66  56  70 CALM      30.20S
LAKEVILLE      SUNNY     64  57  77 CALM      30.21S
SOUTH ST PAUL  SUNNY     65  56  71 CALM      30.21S
LAKE ELMO      FAIR      63  59  88 CALM      30.22S
$$
MNZ001>005-007-008-013>017-022>024-027-028-311500-
   Northwest Minnesota

CITY           SKY/WX    TMP DP  RH WIND       PRES   REMARKS
BEMIDJI        SUNNY     58  54  88 CALM      30.27R
HALLOCK        SUNNY     57  52  82 CALM      30.29R
ROSEAU         SUNNY     57  52  82 N5        30.27F
WARROAD        SUNNY     57  54  88 N7        30.27S
THIEF RVR FALL SUNNY     59  52  77 NE7       30.29R
CROOKSTON      PTSUNNY   59  54  82 E6        30.28S
FOSSTON        CLOUDY    61  57  88 CALM      30.28S
DETROIT LAKES  MOSUNNY   61  55  82 CALM      30.27S
MOORHEAD       SUNNY     61  55  82 CALM      30.26S
MAHNOMEN       CLOUDY    57  54  91 CALM      30.27R
$$
MNZ006-009>011-018-025>026-311500-
   North Central Minnesota

CITY           SKY/WX    TMP DP  RH WIND       PRES   REMARKS
BAUDETTE       MOSUNNY   61  56  83 CALM      30.25F
FLAG ISLAND    MOSUNNY   61  55  82 N5        30.26R
INTL FALLS     SUNNY     61  56  83 N8        30.24S
WASKISH        SUNNY     57  55  94 CALM        N/A
BIG FORK       SUNNY     57  54  88 CALM      30.25S
LONGVILLE      SUNNY     59  57  94 N5        30.24S
GRAND RAPIDS   SUNNY     59  53  80 N6        30.26S
CRANE LAKE     SUNNY     54  54 100 NW2       30.24S
ORR            SUNNY     57  54  88 CALM      30.21F
COOK           SUNNY     54  52  94 CALM      30.24S
WALKER         FAIR      57  55  92 CALM      30.26S
$$
MNZ012-019>021-037-311500-
   Northeast Minnesota

CITY           SKY/WX    TMP DP  RH WIND       PRES   REMARKS
DULUTH         SUNNY     62  54  74 N6        30.21S
ELY            SUNNY     57  54  88 CALM      30.21F
HIBBING        SUNNY     59  53  80 NW6       30.23S
EVELETH        SUNNY     58  53  83 CALM      30.23S
DULUTH HARBOR  SUNNY     61  55  82 SW3       30.21S
TWO HARBORS    SUNNY     66  57  72 CALM      30.18S
SILVER BAY     SUNNY     64  57  77 CALM      30.18S
GRAND MARAIS     N/A     67  48  50 VRB5      30.16S
G MARAIS ARPRT MOSUNNY   61  52  72 N10       30.20F
$$
MNZ029>031-032-039>041-046>048-054>057-064-311500-
   West Central Minnesota

CITY           SKY/WX    TMP DP  RH WIND       PRES   REMARKS
FERGUS FALLS   SUNNY     64  61  88 CALM      30.27R
WHEATON        MOSUNNY   64  61  88 CALM      30.26F
MORRIS         SUNNY     64  59  82 CALM      30.25S
ALEXANDRIA     SUNNY     65  58  78 CALM      30.27R
ELBOW LAKE     FAIR      65  59  82 CALM      30.26S
WADENA         SUNNY     59  55  88 CALM      30.25S
GLENWOOD       SUNNY     64  59  82 CALM      30.27R
APPLETON       MOSUNNY   64  59  82 CALM      30.24S
BENSON         SUNNY     63  57  82 CALM      30.25S
ORTONVILLE     MOSUNNY   66  57  72 CALM      30.25S
MADISON        CLOUDY    63  61  94 CALM      30.24S
WILLMAR        FAIR      66  59  77 CALM      30.26S
$$
MNZ033>034-036-042>043-049>051-058-059-311500-
   Central Minnesota

CITY           SKY/WX    TMP DP  RH WIND       PRES   REMARKS
ST CLOUD       SUNNY     63  58  83 CALM      30.23S
SAUK CENTRE    FAIR      62  58  87 CALM      30.25R
PAYNESVILLE    SUNNY     61  61  99 CALM      30.25S
AITKIN         SUNNY     61  52  72 CALM      30.22F
PINE RIVER     SUNNY     61  57  88 CALM      30.27F
BRAINERD       PTSUNNY   61  60  97 N3        30.24S FOG
STAPLES        SUNNY     57  55  94 N3        30.25S
LONG PRAIRIE   FAIR      61  55  82 CALM      30.25S
LITTLE FALLS   SUNNY     57  55  94 CALM      30.23F
LITCHFIELD     SUNNY     64  59  82 CALM      30.24S
BUFFALO        SUNNY     64  54  71 NW3       30.24S
MAPLE LAKE     SUNNY     63  60  88 CALM      30.23F
HUTCHINSON     SUNNY     65  60  83 CALM      30.24S
$$
MNZ037-044-045-052-053-311500-
   East Central Minnesota

CITY           SKY/WX    TMP DP  RH WIND       PRES   REMARKS
PRINCETON      SUNNY     63  57  82 N3        30.22S
MORA           SUNNY     59  52  77 CALM      30.24S
CAMBRIDGE      SUNNY     63  52  67 CALM      30.21R
RUSH CITY      SUNNY     61  54  78 CALM      30.22S
MOOSE LAKE     SUNNY     59  52  77 CALM      30.21S
HINCKLEY       FAIR      61  54  77 N7        30.23R
CLOQUET        SUNNY     61  52  72 NW5       30.22S
MCGREGOR       SUNNY     59  54  82 NW3       30.24S
$$
MNZ071>073-080-081-089-090-097-098-311500-
   Southwest Minnesota

CITY           SKY/WX    TMP DP  RH WIND       PRES   REMARKS
MONTEVIDEO     MOSUNNY   68  63  83 CALM      30.26S
GRANITE FALLS  MOSUNNY   65  61  88 CALM      30.26S
CANBY          MOSUNNY   64  59  84 NW3       30.26S
MARSHALL       SUNNY     62  59  90 NW3       30.24F
REDWOOD FALLS  SUNNY     63  58  83 NW3       30.23S
OLIVIA         SUNNY     63  57  82 CALM      30.23S
WINDOM         SUNNY     64  57  77 CALM      30.23S
WORTHINGTON    SUNNY     64  59  83 N3        30.25S
JACKSON        SUNNY     61  59  94 CALM      30.24S
TRACY          SUNNY     64  60  87 NW3       30.25S
SLAYTON        SUNNY     63  59  88 NW3       30.25F
$$
MNZ065>067-074>077-082>085-091>093-311500-
   South Central Minnesota

CITY           SKY/WX    TMP DP  RH WIND       PRES   REMARKS
NEW ULM        SUNNY     63  57  82 CALM      30.23R
ST JAMES       SUNNY     63  59  88 CALM      30.24R
FAIRMONT       SUNNY     62  59  90 N5        30.22S
GLENCOE        SUNNY     63  61  91 CALM      30.22S
FARIBAULT      SUNNY     61  61 100 CALM      30.21S
OWATONNA       SUNNY     61  57  88 CALM      30.21S
WASECA         SUNNY     63  57  82 CALM      30.23R
ALBERT LEA     SUNNY     63  59  88 CALM      30.21S
$$
MNZ078>079-086>088-094>096-311500-
   Southeast Minnesota

CITY           SKY/WX    TMP DP  RH WIND       PRES   REMARKS
ROCHESTER      SUNNY     64  58  80 N3        30.21S
RED WING       SUNNY     61  61 100 CALM      30.19S
STANTON        SUNNY     59  57  94 CALM      30.20S
DODGE CENTER   SUNNY     64  57  77 N5        30.21S
WINONA         PTSUNNY   59  59 100 CALM      30.19S
AUSTIN         SUNNY     63  57  82 CALM      30.20S
PRESTON        SUNNY     63  56  79 N6        30.20R
$$
ABBREVIATIONS USED IN REMARKS
   TC - TEMPERATURES IN CELSIUS
  WCI - WIND CHILL INDEX
   HX - HEAT INDEX
  VSB - VISIBILITY
$$




USA.gov is the U.S. government's official web portal to all federal, state and local government web resources and services.